Tracking 18843 objects as of 20-November-2017
HD Live streaming from Space Station
objects crossing your sky now

FENGYUN 1C DEB

Track FENGYUN 1C DEB now!
10-day predictions


NORAD ID: 31719
Int'l Code: 1999-025CDS
Perigee: 816.9 km
Apogee: 1,130.0 km
Inclination: 97.6 °
Period: 104.4 minutes
Semi major axis: 7344 km
RCS: 0.0117 m2 (small)
Launch date: May 10, 1999
Source: People's Republic of China (PRC)
Launch site: Taiyaun Space Center, China (TSC)

Note: This is SATELLITE DEBRIS
aabbcc
Your satellite tracking list
Your tracking list is empty




NASA's NSSDC Master Catalog

Two Line Element Set (TLE):
1 31719U 99025CDS 17322.58468657 +.00002363 +00000-0 +19665-2 0  9993
2 31719 097.5544 244.9535 0213100 058.8215 303.3644 13.79315011180075
Source of the keplerian elements: AFSPC